• In Hungary
  • List of Countries
  • For 7 days
  • Water Temperature
  • Satellite Maps
  • Weather Map
  • News
  • Weather Widgets
  • user-avatar
    Login

    Hourly Weather Amman

    Today, 17 August, Thursday

    Time Temperature Precipitation Wind Pressure Humidity
    00:00 +25°C° 0 mm 3 mps 686 mmHg 61%
    01:00 +24°C° 0 mm 2 mps 686 mmHg 62%
    02:00 +24°C° 0 mm 2 mps 686 mmHg 62%
    03:00 +23°C° 0 mm 2 mps 686 mmHg 64%
    04:00 +23°C° 0 mm 2 mps 686 mmHg 66%
    05:00 +22°C° 0 mm 1 mps 686 mmHg 67%
    06:00 +24°C° 0 mm 2 mps 686 mmHg 60%
    07:00 +25°C° 0 mm 2 mps 687 mmHg 52%
    08:00 +26°C° 0 mm 2 mps 688 mmHg 44%
    09:00 +28°C° 0 mm 2 mps 688 mmHg 37%
    10:00 +30°C° 0 mm 2 mps 688 mmHg 31%
    11:00 +31°C° 0 mm 3 mps 689 mmHg 25%
    12:00 +33°C° 0 mm 3 mps 689 mmHg 23%
    13:00 +34°C° 0 mm 3 mps 689 mmHg 22%
    14:00 +35°C° 0 mm 4 mps 688 mmHg 22%
    15:00 +35°C° 0 mm 4 mps 688 mmHg 24%
    16:00 +34°C° 0 mm 5 mps 688 mmHg 27%
    17:00 +34°C° 0 mm 5 mps 688 mmHg 29%
    18:00 +32°C° 0 mm 5 mps 689 mmHg 36%
    19:00 +30°C° 0 mm 5 mps 689 mmHg 43%
    20:00 +28°C° 0 mm 4 mps 689 mmHg 50%
    21:00 +27°C° 0 mm 4 mps 689 mmHg 52%
    22:00 +27°C° 0 mm 3 mps 689 mmHg 55%
    23:00 +26°C° 0 mm 3 mps 689 mmHg 57%

    Tomorrow, 18 August, Friday

    Time Temperature Precipitation Wind Pressure Humidity
    00:00 +25°C° 0 mm 2 mps 689 mmHg 58%
    01:00 +25°C° 0 mm 2 mps 689 mmHg 59%
    02:00 +24°C° 0 mm 2 mps 689 mmHg 60%
    03:00 +24°C° 0 mm 1 mps 689 mmHg 61%
    04:00 +23°C° 0 mm 1 mps 689 mmHg 62%
    05:00 +23°C° 0 mm 1 mps 689 mmHg 62%
    06:00 +24°C° 0 mm 1 mps 689 mmHg 57%
    07:00 +25°C° 0 mm 2 mps 690 mmHg 51%
    08:00 +26°C° 0 mm 2 mps 690 mmHg 45%
    09:00 +28°C° 0 mm 2 mps 690 mmHg 39%
    10:00 +30°C° 0 mm 3 mps 691 mmHg 33%
    11:00 +31°C° 0 mm 3 mps 691 mmHg 26%
    12:00 +33°C° 0 mm 3 mps 691 mmHg 24%
    13:00 +34°C° 0 mm 4 mps 691 mmHg 22%
    14:00 +35°C° 0 mm 4 mps 690 mmHg 20%
    15:00 +35°C° 0 mm 4 mps 690 mmHg 22%
    16:00 +34°C° 0 mm 4 mps 690 mmHg 23%
    17:00 +34°C° 0 mm 5 mps 690 mmHg 25%
    18:00 +32°C° 0 mm 4 mps 690 mmHg 31%
    19:00 +30°C° 0 mm 4 mps 690 mmHg 36%
    20:00 +28°C° 0 mm 4 mps 690 mmHg 42%
    21:00 +28°C° 0 mm 4 mps 690 mmHg 45%
    22:00 +27°C° 0 mm 3 mps 690 mmHg 49%
    23:00 +26°C° 0 mm 3 mps 690 mmHg 52%

    Day after tomorrow, 19 August, Saturday

    Time Temperature Precipitation Wind Pressure Humidity
    00:00 +26°C° 0 mm 2 mps 690 mmHg 53%
    01:00 +25°C° 0 mm 2 mps 689 mmHg 54%
    02:00 +25°C° 0 mm 1 mps 689 mmHg 55%
    03:00 +25°C° 0 mm 1 mps 689 mmHg 54%
    04:00 +25°C° 0 mm 2 mps 689 mmHg 53%
    05:00 +24°C° 0 mm 2 mps 689 mmHg 52%
    06:00 +26°C° 0 mm 2 mps 690 mmHg 46%
    07:00 +27°C° 0 mm 2 mps 690 mmHg 40%
    08:00 +28°C° 0 mm 2 mps 691 mmHg 34%
    09:00 +30°C° 0 mm 2 mps 691 mmHg 30%
    10:00 +31°C° 0 mm 2 mps 691 mmHg 27%
    11:00 +34°C° 0 mm 3 mps 692 mmHg 24%
    12:00 +35°C° 0 mm 3 mps 691 mmHg 22%
    13:00 +36°C° 0 mm 3 mps 691 mmHg 21%
    14:00 +36°C° 0 mm 4 mps 691 mmHg 20%
    15:00 +36°C° 0 mm 4 mps 691 mmHg 21%
    16:00 +36°C° 0 mm 4 mps 690 mmHg 22%
    17:00 +35°C° 0 mm 5 mps 690 mmHg 23%
    18:00 +34°C° 0 mm 5 mps 690 mmHg 26%
    19:00 +32°C° 0 mm 5 mps 691 mmHg 30%
    20:00 +30°C° 0 mm 4 mps 691 mmHg 33%
    21:00 +29°C° 0 mm 4 mps 691 mmHg 35%
    22:00 +29°C° 0 mm 4 mps 690 mmHg 37%
    23:00 +28°C° 0 mm 3 mps 690 mmHg 39%

    20 August, Sunday

    Time Temperature Precipitation Wind Pressure Humidity
    00:00 +28°C° 0 mm 3 mps 690 mmHg 41%
    01:00 +27°C° 0 mm 2 mps 690 mmHg 42%
    02:00 +27°C° 0 mm 2 mps 689 mmHg 43%
    03:00 +26°C° 0 mm 2 mps 690 mmHg 43%
    04:00 +26°C° 0 mm 2 mps 690 mmHg 43%
    05:00 +26°C° 0 mm 2 mps 690 mmHg 44%
    06:00 +27°C° 0 mm 2 mps 690 mmHg 39%
    07:00 +28°C° 0 mm 3 mps 690 mmHg 35%
    08:00 +30°C° 0 mm 3 mps 691 mmHg 30%
    09:00 +31°C° 0 mm 3 mps 691 mmHg 27%
    10:00 +34°C° 0 mm 3 mps 691 mmHg 25%
    11:00 +35°C° 0 mm 4 mps 691 mmHg 22%
    12:00 +36°C° 0 mm 4 mps 691 mmHg 21%
    13:00 +37°C° 0 mm 4 mps 690 mmHg 20%
    14:00 +38°C° 0 mm 4 mps 690 mmHg 19%
    15:00 +37°C° 0 mm 5 mps 690 mmHg 22%
    16:00 +36°C° 0 mm 5 mps 690 mmHg 25%
    17:00 +35°C° 0 mm 6 mps 689 mmHg 28%
    18:00 +34°C° 0 mm 5 mps 689 mmHg 33%
    19:00 +32°C° 0 mm 5 mps 690 mmHg 39%
    20:00 +30°C° 0 mm 4 mps 690 mmHg 44%
    21:00 +29°C° 0 mm 4 mps 690 mmHg 47%
    22:00 +28°C° 0 mm 4 mps 689 mmHg 50%
    23:00 +27°C° 0 mm 4 mps 689 mmHg 54%

    21 August, Monday

    Time Temperature Precipitation Wind Pressure Humidity
    00:00 +27°C° 0 mm 4 mps 689 mmHg 55%
    01:00 +26°C° 0 mm 3 mps 689 mmHg 57%
    02:00 +26°C° 0 mm 3 mps 689 mmHg 59%
    03:00 +25°C° 0 mm 3 mps 689 mmHg 61%
    04:00 +25°C° 0 mm 3 mps 689 mmHg 63%
    05:00 +25°C° 0 mm 3 mps 689 mmHg 66%
    06:00 +26°C° 0 mm 3 mps 689 mmHg 61%
    07:00 +27°C° 0 mm 3 mps 689 mmHg 56%
    08:00 +28°C° 0 mm 3 mps 690 mmHg 51%
    09:00 +29°C° 0 mm 4 mps 690 mmHg 44%
    10:00 +32°C° 0 mm 4 mps 690 mmHg 37%
    11:00 +34°C° 0 mm 4 mps 690 mmHg 30%
    12:00 +35°C° 0 mm 4 mps 690 mmHg 28%
    13:00 +36°C° 0 mm 5 mps 690 mmHg 26%
    14:00 +37°C° 0 mm 5 mps 689 mmHg 24%
    15:00 +36°C° 0 mm 5 mps 689 mmHg 26%
    16:00 +35°C° 0 mm 5 mps 689 mmHg 27%
    17:00 +34°C° 0 mm 5 mps 689 mmHg 29%
    18:00 +33°C° 0 mm 5 mps 689 mmHg 33%
    19:00 +30°C° 0 mm 5 mps 689 mmHg 37%
    20:00 +29°C° 0 mm 4 mps 689 mmHg 41%
    21:00 +28°C° 0 mm 4 mps 689 mmHg 43%
    22:00 +27°C° 0 mm 4 mps 689 mmHg 45%
    23:00 +26°C° 0 mm 4 mps 689 mmHg 47%

    22 August, Tuesday

    Time Temperature Precipitation Wind Pressure Humidity
    00:00 +26°C° 0 mm 4 mps 689 mmHg 50%
    01:00 +25°C° 0 mm 4 mps 689 mmHg 52%
    02:00 +25°C° 0 mm 4 mps 688 mmHg 54%
    03:00 +25°C° 0 mm 3 mps 688 mmHg 56%
    04:00 +24°C° 0 mm 3 mps 689 mmHg 59%
    05:00 +24°C° 0 mm 2 mps 689 mmHg 61%
    06:00 +25°C° 0 mm 3 mps 689 mmHg 56%
    07:00 +26°C° 0 mm 3 mps 689 mmHg 52%
    08:00 +27°C° 0 mm 4 mps 690 mmHg 47%
    09:00 +29°C° 0 mm 4 mps 690 mmHg 41%
    10:00 +32°C° 0 mm 4 mps 690 mmHg 34%
    11:00 +33°C° 0 mm 4 mps 690 mmHg 28%
    12:00 +34°C° 0 mm 5 mps 689 mmHg 26%
    13:00 +35°C° 0 mm 5 mps 689 mmHg 25%
    14:00 +36°C° 0 mm 5 mps 689 mmHg 24%
    15:00 +35°C° 0 mm 6 mps 689 mmHg 26%
    16:00 +34°C° 0 mm 6 mps 689 mmHg 29%
    17:00 +33°C° 0 mm 6 mps 688 mmHg 31%
    18:00 +32°C° 0 mm 5 mps 689 mmHg 36%
    19:00 +29°C° 0 mm 5 mps 689 mmHg 41%
    20:00 +28°C° 0 mm 4 mps 689 mmHg 46%
    21:00 +27°C° 0 mm 4 mps 689 mmHg 50%
    22:00 +27°C° 0 mm 4 mps 688 mmHg 54%
    23:00 +26°C° 0 mm 4 mps 688 mmHg 58%
    Show more